Skip Page Navigation
NASA JPL Caltech
NASA Logo - Jet Propulsion Laboratory + View the NASA Portal
+ Center for Near-Earth Object Studies
JPL Home Earth Solar System Stars & Galaxies Technology
JPL Solar System Dynamics
BODIES ORBITS EPHEMERIDES TOOLS PHYSICAL DATA DISCOVERY FAQ SITE MAP
IMPORTANT: The SSD Announcement email list is now available. Major changes are coming in the near future, including possible hostname and/or URL changes. To be notified of such changes, subscribe to this email list.

Please visit this page for more details.


JPL Small-Body Database Browser
Search: [ help ]  
410675 (2008 UZ66)
Classification: Outer Main-belt Asteroid          SPK-ID: 2410675
Ephemeris | Orbit Diagram | Orbital Elements | Mission Design | Physical Parameters | Discovery Circumstances | Close-Approach Data ]

[ show orbit diagram ]
Orbital Elements at Epoch 2459000.5 (2020-May-31.0) TDB
Reference: JPL 17 (heliocentric ecliptic J2000)
 Element Value Uncertainty (1-sigma)   Units 
e .105858862805589 7.4745e-08  
a 3.566829412158892 1.0385e-07 au
q 3.189248906766224 3.2233e-07 au
i 8.608263085046708 9.4729e-06 deg
node 251.4875566756671 4.3235e-05 deg
peri 103.4868548691713 6.1085e-05 deg
M 307.4529538903118 4.7665e-05 deg
tp 2459359.643278130228
(2021-May-25.14327813)
0.00033446 TDB
period 2460.491877259765
6.74
0.00010745
2.942e-07
d
yr
n .14631220827314 6.3897e-09 deg/d
Q 3.944409917551559 1.1484e-07 au
  Orbit Determination Parameters
   # obs. used (total)      160  
   data-arc span      6463 days (17.69 yr)  
   first obs. used      2001-10-20  
   last obs. used      2019-07-01  
   planetary ephem.      DE431  
   SB-pert. ephem.      SB431-N16  
   condition code      0  
   norm. resid. RMS      .65485  
   source      ORB  
   producer      Otto Matic  
   solution date      2020-Feb-26 06:47:19  

Additional Information
 Earth MOID = 2.20037 au 
 Jupiter MOID = 1.58378 au 
 T_jup = 3.087 
[ show covariance matrix ]

Ephemeris | Orbit Diagram | Orbital Elements | Mission Design | Physical Parameters | Discovery Circumstances | Close-Approach Data ]

Physical Parameter Table
Parameter Symbol Value Units Sigma Reference Notes
absolute magnitude H 15.4   n/a MPO450422  
diameter diameter 6.320 km 2.620 urn:nasa:pds:neowise_diameters_albedos::2.0[mainbelt] (http://adsabs.harvard.edu/abs/2011ApJ...741...68M)  
geometric albedo albedo 0.037   0.025 urn:nasa:pds:neowise_diameters_albedos::2.0[mainbelt] (http://adsabs.harvard.edu/abs/2011ApJ...741...68M)  

410675 (2008 UZ66)          Discovered 2008-Oct-21 by Spacewatch at Kitt Peak
Reference: Last Updated: 2014-10-09

[ show close-approach data ]
Ephemeris | Orbit Diagram | Orbital Elements | Mission Design | Physical Parameters | Discovery Circumstances | Close-Approach Data ]
ABOUT SSD CREDITS/AWARDS PRIVACY/COPYRIGHT GLOSSARY LINKS
FirstGov 2020-May-29 08:46 UT
(server date/time)  
NASA Home Page
Site Manager:   Ryan S. Park
Webmaster  Alan B. Chamberlin